Location: Recife
(8.0585°S, 34.8848°W)
Time: 20:32:22
(UTC-03:00)

A-11 Canister half - Pass Details

Date: 19 April 2026
Orbit: 1515 x 1684 km, 47.2° (Epoch: 16 May)

Event Time Altitude Azimuth Distance (km) Brightness Sun altitude
Rises 00:14:36 0° 220° (SW) 4,757 - -75.9°
Reaches altitude 10° 00:17:43 10° 220° (SW) 3,749 - -75.1°
Maximum altitude 00:27:12 88° 130° (SE) 1,530 - -72.9°
Drops below altitude 10° 00:36:26 10° 40° (NE) 3,663 - -70.6°
Sets 00:39:26 0° 40° (NE) 4,642 - -69.9°
